Charleston, SC

7:59 PM EDT on August 22, 2017 (GMT -0400)
Charleston Air Force Base-International

Weather History for KCHS - January, 2014

Change the Weather History Date:

Tuesday, January 21, 2014

  Actual Average Record
Temperature  
Mean Temperature 54 °F 48 °F  
Max Temperature 66 °F 59 °F 80 °F (1954)
Min Temperature 42 °F 38 °F 6 °F (1985)
Degree Days  
Heating Degree Days 11 17  
Month to date heating degree days 341 357  
Since 1 July heating degree days 941 1095  
Cooling Degree Days 0 0  
Month to date cooling degree days 2 0  
Year to date cooling degree days 2 0  
Growing Degree Days 4 (Base 50)    
Moisture  
Dew Point 35 °F    
Average Humidity 52    
Maximum Humidity 76    
Minimum Humidity 28    
Precipitation  
Precipitation T in 0.12 in 2.47 in (1983)
Month to date precipitation 2.08 2.51  
Year to date precipitation 2.08 2.51  
Sea Level Pressure  
Sea Level Pressure 29.75 in    
Wind  
Wind Speed 12 mph (WSW)    
Max Wind Speed 32 mph    
Max Gust Speed 43 mph    
Visibility 10 miles    
Events Rain    
T = Trace of Precipitation, MM = Missing Value Source: NWS Daily Summary

Daily Weather History Graph

Daily Weather History Graph

Search for Another Location

Airport or City:

Trip Planner

Search our weather history database for the weather conditions in past years. The results will help you decide how hot, cold, wet, or windy it might be!

Date:

Astronomy

Jan. 21, 2014 Rise Set
Actual Time 7:21 AM EST 5:42 PM EST
Civil Twilight 6:54 AM EST 6:08 PM EST
Nautical Twilight 6:24 AM EST 6:38 PM EST
Astronomical Twilight 5:55 AM EST 7:08 PM EST
Moon 10:53 PM EST (1/21) 10:08 AM EST (1/21)
Length of Visible Light 11h 13m
Length of Day
10h 21m
Waning Gibbous, 75% of the Moon is Illuminated
Jan 21
Waning Gibbous
Jan 24
Last Quarter
Jan 30
New
Feb 6
First Quarter
Feb 14
Full

Hourly Weather History & Observations

Time (EST) Temp. Windchill Dew Point Humidity Pressure Visibility Wind Dir Wind Speed Gust Speed Precip Events Conditions
12:56 AM 46.9 °F - 39.9 °F 77% 29.90 in 10.0 mi SW 8.1 mph - N/A   Partly Cloudy
1:56 AM 46.9 °F - 37.9 °F 71% 29.89 in 10.0 mi SW 8.1 mph - N/A   Partly Cloudy
2:56 AM 46.0 °F 41.9 °F 37.0 °F 71% 29.88 in 10.0 mi SW 8.1 mph - N/A   Scattered Clouds
3:56 AM 45.0 °F 42.6 °F 36.0 °F 71% 29.86 in 10.0 mi West 4.6 mph - N/A   Clear
4:56 AM 44.1 °F 39.5 °F 35.1 °F 71% 29.85 in 10.0 mi SW 8.1 mph - N/A   Clear
5:56 AM 45.0 °F 40.1 °F 35.1 °F 68% 29.84 in 10.0 mi SW 9.2 mph - N/A   Clear
6:56 AM 44.1 °F 39.5 °F 37.0 °F 76% 29.82 in 10.0 mi SW 8.1 mph - N/A   Clear
7:56 AM 46.0 °F 41.4 °F 39.0 °F 76% 29.81 in 10.0 mi SW 9.2 mph - N/A   Clear
8:56 AM 50.0 °F - 41.0 °F 71% 29.80 in 10.0 mi SW 10.4 mph - N/A   Clear
9:56 AM 55.9 °F - 41.0 °F 57% 29.78 in 10.0 mi SW 10.4 mph - N/A   Clear
10:56 AM 61.0 °F - 39.0 °F 44% 29.75 in 10.0 mi WSW 10.4 mph - N/A   Clear
11:56 AM 64.0 °F - 39.9 °F 41% 29.71 in 10.0 mi SW 9.2 mph 18.4 mph N/A   Clear
12:56 PM 64.9 °F - 41.0 °F 42% 29.65 in 10.0 mi SSW 15.0 mph - N/A   Partly Cloudy
1:56 PM 66.0 °F - 44.1 °F 45% 29.60 in 10.0 mi SSW 15.0 mph 21.9 mph N/A   Scattered Clouds
2:56 PM 61.0 °F - 46.9 °F 60% 29.57 in 10.0 mi SSW 11.5 mph - 0.00 in Rain Light Rain
3:56 PM 60.1 °F - 50.0 °F 69% 29.57 in 10.0 mi SSW 11.5 mph - 0.00 in   Mostly Cloudy
4:56 PM 63.0 °F - 37.9 °F 40% 29.58 in 10.0 mi West 12.7 mph 23.0 mph N/A   Scattered Clouds
5:56 PM 57.9 °F - 28.0 °F 32% 29.64 in 10.0 mi WNW 20.7 mph 36.8 mph N/A   Scattered Clouds
6:56 PM 53.1 °F - 21.0 °F 29% 29.69 in 10.0 mi WNW 20.7 mph 42.6 mph N/A   Partly Cloudy
7:56 PM 51.1 °F - 21.0 °F 31% 29.73 in 10.0 mi WNW 23.0 mph 33.4 mph N/A   Clear
8:56 PM 48.0 °F - 21.9 °F 36% 29.75 in 10.0 mi WNW 13.8 mph 23.0 mph N/A   Clear
9:56 PM 46.9 °F - 24.1 °F 41% 29.78 in 10.0 mi WNW 16.1 mph 29.9 mph N/A   Clear
10:56 PM 45.0 °F 39.3 °F 24.1 °F 44% 29.80 in 10.0 mi WNW 11.5 mph 20.7 mph N/A   Clear
11:56 PM 44.1 °F 37.4 °F 25.0 °F 47% 29.83 in 10.0 mi WNW 13.8 mph 20.7 mph N/A   Clear